Time,TemperatureF,DewpointF,PressureIn,WindDirection,WindDirectionDegrees,WindSpeedMPH,WindSpeedGustMPH,Humidity,HourlyPrecipIn,Conditions,Clouds,dailyrainin,SoftwareType,DateUTC
2013-07-28 00:02:00,55.0,52.0,30.09,North,0,0.0,-999.0,87,-99.99,,,-99.99,,2013-07-28 05:02:00,
2013-07-28 00:12:00,55.0,52.0,30.09,North,0,0.0,-999.0,87,-99.99,,,-99.99,,2013-07-28 05:12:00,
2013-07-28 00:22:00,55.0,52.0,30.09,North,0,0.0,-999.0,87,-99.99,,,-99.99,,2013-07-28 05:22:00,
2013-07-28 00:32:00,54.0,52.0,30.10,North,0,0.0,-999.0,93,-99.99,,,-99.99,,2013-07-28 05:32:00,
2013-07-28 00:43:00,54.0,52.0,30.10,North,0,0.0,-999.0,93,-99.99,,,-99.99,,2013-07-28 05:43:00,
2013-07-28 00:52:00,54.0,52.0,30.10,North,0,0.0,-999.0,93,-99.99,,,-99.99,,2013-07-28 05:52:00,
2013-07-28 01:02:00,52.0,50.0,30.10,North,0,0.0,-999.0,93,-99.99,,,-99.99,,2013-07-28 06:02:00,
2013-07-28 01:12:00,52.0,48.0,30.10,North,0,0.0,-999.0,87,-99.99,,,-99.99,,2013-07-28 06:12:00,
2013-07-28 01:22:00,50.0,48.0,30.10,North,0,0.0,-999.0,93,-99.99,,,-99.99,,2013-07-28 06:22:00,
2013-07-28 01:32:00,50.0,48.0,30.10,North,0,0.0,-999.0,93,-99.99,,,-99.99,,2013-07-28 06:32:00,
2013-07-28 01:42:00,50.0,48.0,30.10,North,0,0.0,-999.0,93,-99.99,,,-99.99,,2013-07-28 06:42:00,
2013-07-28 01:52:00,48.0,48.0,30.10,North,0,0.0,-999.0,100,-99.99,,,-99.99,,2013-07-28 06:52:00,
2013-07-28 02:02:00,50.0,50.0,30.10,WNW,294,5.0,-999.0,100,-99.99,,,-99.99,,2013-07-28 07:02:00,
2013-07-28 02:12:00,50.0,48.0,30.10,WNW,295,3.0,-999.0,93,-99.99,,,-99.99,,2013-07-28 07:12:00,
2013-07-28 02:22:00,52.0,50.0,30.10,WNW,295,8.0,-999.0,93,-99.99,,,-99.99,,2013-07-28 07:22:00,
2013-07-28 02:32:00,52.0,48.0,30.10,North,0,0.0,-999.0,87,-99.99,,,-99.99,,2013-07-28 07:32:00,
2013-07-28 02:42:00,48.0,48.0,30.11,NW,315,5.0,-999.0,100,-99.99,,,-99.99,,2013-07-28 07:42:00,
2013-07-28 02:53:00,50.0,48.0,30.11,North,0,0.0,-999.0,93,-99.99,,,-99.99,,2013-07-28 07:53:00,
2013-07-28 03:02:00,52.0,48.0,30.10,North,0,0.0,-999.0,87,-99.99,,,-99.99,,2013-07-28 08:02:00,
2013-07-28 03:12:00,52.0,50.0,30.10,North,0,0.0,-999.0,93,-99.99,,,-99.99,,2013-07-28 08:12:00,
2013-07-28 03:22:00,52.0,50.0,30.10,North,0,0.0,-999.0,93,-99.99,,,-99.99,,2013-07-28 08:22:00,
2013-07-28 03:33:00,52.0,50.0,30.10,North,0,0.0,-999.0,93,-99.99,,,-99.99,,2013-07-28 08:33:00,
2013-07-28 03:42:00,52.0,50.0,30.10,North,0,0.0,-999.0,93,-99.99,,,-99.99,,2013-07-28 08:42:00,
2013-07-28 03:53:00,52.0,50.0,30.09,North,0,0.0,-999.0,93,-99.99,,,-99.99,,2013-07-28 08:53:00,
2013-07-28 04:02:00,52.0,50.0,30.09,North,0,0.0,-999.0,93,-99.99,,,-99.99,,2013-07-28 09:02:00,
2013-07-28 04:12:00,52.0,48.0,30.09,North,0,0.0,-999.0,87,-99.99,,,-99.99,,2013-07-28 09:12:00,
2013-07-28 04:22:00,52.0,48.0,30.09,North,0,0.0,-999.0,87,-99.99,,,-99.99,,2013-07-28 09:22:00,
2013-07-28 04:32:00,52.0,48.0,30.09,North,0,0.0,-999.0,87,-99.99,,,-99.99,,2013-07-28 09:32:00,
2013-07-28 04:43:00,50.0,48.0,30.09,North,0,0.0,-999.0,93,-99.99,,,-99.99,,2013-07-28 09:43:00,
2013-07-28 04:53:00,48.0,48.0,30.09,North,0,0.0,-999.0,100,-99.99,,,-99.99,,2013-07-28 09:53:00,
2013-07-28 05:02:00,48.0,46.0,30.09,North,0,0.0,-999.0,93,-99.99,,,-99.99,,2013-07-28 10:02:00,
2013-07-28 05:12:00,46.0,46.0,30.09,North,0,0.0,-999.0,100,-99.99,,,-99.99,,2013-07-28 10:12:00,
2013-07-28 05:22:00,46.0,46.0,30.09,North,0,0.0,-999.0,100,-99.99,,,-99.99,,2013-07-28 10:22:00,
2013-07-28 05:32:00,46.0,46.0,30.09,North,0,0.0,-999.0,100,-99.99,,,-99.99,,2013-07-28 10:32:00,
2013-07-28 05:42:00,46.0,46.0,30.09,North,0,0.0,-999.0,100,-99.99,,,-99.99,,2013-07-28 10:42:00,
2013-07-28 05:52:00,46.0,46.0,30.09,North,0,0.0,-999.0,100,-99.99,,,-99.99,,2013-07-28 10:52:00,
2013-07-28 06:22:00,48.0,48.0,30.10,North,0,0.0,-999.0,100,-99.99,,,-99.99,,2013-07-28 11:22:00,
2013-07-28 06:33:00,46.0,46.0,30.10,North,0,0.0,-999.0,100,-99.99,,,-99.99,,2013-07-28 11:33:00,
2013-07-28 06:43:00,46.0,46.0,30.10,North,0,0.0,-999.0,100,-99.99,,,-99.99,,2013-07-28 11:43:00,
2013-07-28 06:53:00,46.0,45.0,30.10,North,0,0.0,-999.0,93,-99.99,,,-99.99,,2013-07-28 11:53:00,
2013-07-28 07:02:00,46.0,45.0,30.10,North,0,0.0,-999.0,93,-99.99,,,-99.99,,2013-07-28 12:02:00,
2013-07-28 07:12:00,46.0,46.0,30.11,North,0,0.0,-999.0,100,-99.99,,,-99.99,,2013-07-28 12:12:00,
2013-07-28 07:22:00,48.0,48.0,30.11,North,0,0.0,-999.0,100,-99.99,,,-99.99,,2013-07-28 12:22:00,
2013-07-28 07:33:00,48.0,48.0,30.11,North,0,0.0,-999.0,100,-99.99,,,-99.99,,2013-07-28 12:33:00,
2013-07-28 07:43:00,48.0,48.0,30.11,North,0,0.0,-999.0,100,-99.99,,,-99.99,,2013-07-28 12:43:00,
2013-07-28 07:53:00,50.0,48.0,30.11,North,0,0.0,-999.0,93,-99.99,,,-99.99,,2013-07-28 12:53:00,
2013-07-28 09:12:00,57.0,52.0,30.12,North,0,0.0,-999.0,82,-99.99,,,-99.99,,2013-07-28 14:12:00,
2013-07-28 09:22:00,59.0,52.0,30.13,NW,315,7.0,-999.0,76,-99.99,,,-99.99,,2013-07-28 14:22:00,
2013-07-28 09:33:00,61.0,52.0,30.13,NNW,335,5.0,-999.0,72,-99.99,,,-99.99,,2013-07-28 14:33:00,
2013-07-28 09:43:00,61.0,52.0,30.13,NNE,24,5.0,-999.0,72,-99.99,,,-99.99,,2013-07-28 14:43:00,
2013-07-28 09:53:00,63.0,50.0,30.13,East,90,3.0,-999.0,63,-99.99,,,-99.99,,2013-07-28 14:53:00,
2013-07-28 10:02:00,63.0,52.0,30.13,NNE,24,5.0,-999.0,67,-99.99,,,-99.99,,2013-07-28 15:02:00,
2013-07-28 10:12:00,63.0,52.0,30.12,NNW,335,10.0,-999.0,67,-99.99,,,-99.99,,2013-07-28 15:12:00,
2013-07-28 10:22:00,63.0,52.0,30.12,North,0,10.0,-999.0,67,-99.99,,,-99.99,,2013-07-28 15:22:00,
2013-07-28 10:32:00,63.0,50.0,30.12,North,0,8.0,-999.0,63,-99.99,,,-99.99,,2013-07-28 15:32:00,
2013-07-28 10:43:00,64.0,52.0,30.12,NNE,24,5.0,-999.0,63,-99.99,,,-99.99,,2013-07-28 15:43:00,
2013-07-28 10:53:00,64.0,52.0,30.12,North,0,0.0,-999.0,63,-99.99,,,-99.99,,2013-07-28 15:53:00,
2013-07-28 11:02:00,64.0,52.0,30.13,NNE,24,6.0,-999.0,63,-99.99,,,-99.99,,2013-07-28 16:02:00,
2013-07-28 11:12:00,64.0,52.0,30.13,NNW,335,5.0,-999.0,63,-99.99,,,-99.99,,2013-07-28 16:12:00,
2013-07-28 11:22:00,66.0,52.0,30.13,NW,315,10.0,-999.0,59,-99.99,,,-99.99,,2013-07-28 16:22:00,
2013-07-28 11:33:00,64.0,50.0,30.13,NW,315,9.0,-999.0,59,-99.99,,,-99.99,,2013-07-28 16:33:00,
2013-07-28 11:43:00,66.0,52.0,30.13,North,0,7.0,-999.0,59,-99.99,,,-99.99,,2013-07-28 16:43:00,
2013-07-28 11:52:00,66.0,52.0,30.13,NW,315,6.0,-999.0,59,-99.99,,,-99.99,,2013-07-28 16:52:00,
2013-07-28 12:02:00,66.0,50.0,30.13,North,0,8.0,-999.0,55,-99.99,,,-99.99,,2013-07-28 17:02:00,
2013-07-28 12:12:00,66.0,52.0,30.13,WNW,295,7.0,-999.0,59,-99.99,,,-99.99,,2013-07-28 17:12:00,
2013-07-28 12:22:00,66.0,52.0,30.13,North,0,0.0,-999.0,59,-99.99,,,-99.99,,2013-07-28 17:22:00,
2013-07-28 12:32:00,66.0,52.0,30.12,NW,315,8.0,-999.0,59,-99.99,,,-99.99,,2013-07-28 17:32:00,
2013-07-28 12:43:00,66.0,50.0,30.12,North,0,5.0,-999.0,55,-99.99,,,-99.99,,2013-07-28 17:43:00,
2013-07-28 12:53:00,68.0,50.0,30.11,NW,315,12.0,-999.0,52,-99.99,,,-99.99,,2013-07-28 17:53:00,
2013-07-28 13:03:00,68.0,50.0,30.12,NNW,335,10.0,-999.0,52,-99.99,,,-99.99,,2013-07-28 18:03:00,
2013-07-28 13:12:00,68.0,50.0,30.11,NW,315,12.0,-999.0,52,-99.99,,,-99.99,,2013-07-28 18:12:00,
2013-07-28 13:22:00,68.0,48.0,30.12,NW,315,5.0,-999.0,49,-99.99,,,-99.99,,2013-07-28 18:22:00,
2013-07-28 13:33:00,70.0,52.0,30.11,North,0,0.0,-999.0,52,-99.99,,,-99.99,,2013-07-28 18:33:00,
2013-07-28 13:43:00,70.0,52.0,30.11,North,0,6.0,-999.0,52,-99.99,,,-99.99,,2013-07-28 18:43:00,
2013-07-28 13:52:00,70.0,52.0,30.11,WNW,295,12.0,-999.0,52,-99.99,,,-99.99,,2013-07-28 18:52:00,
2013-07-28 14:02:00,70.0,52.0,30.11,NW,315,7.0,-999.0,52,-99.99,,,-99.99,,2013-07-28 19:02:00,
2013-07-28 14:12:00,72.0,52.0,30.11,NW,315,3.0,-999.0,49,-99.99,,,-99.99,,2013-07-28 19:12:00,
2013-07-28 14:22:00,70.0,50.0,30.11,NNW,334,8.0,-999.0,49,-99.99,,,-99.99,,2013-07-28 19:22:00,
2013-07-28 14:32:00,72.0,52.0,30.11,NW,315,3.0,-999.0,49,-99.99,,,-99.99,,2013-07-28 19:32:00,
2013-07-28 14:43:00,70.0,50.0,30.11,North,0,0.0,-999.0,49,-99.99,,,-99.99,,2013-07-28 19:43:00,
2013-07-28 14:52:00,72.0,52.0,30.10,NW,315,8.0,-999.0,49,-99.99,,,-99.99,,2013-07-28 19:52:00,
2013-07-28 15:02:00,72.0,48.0,30.10,North,0,7.0,-999.0,43,-99.99,,,-99.99,,2013-07-28 20:02:00,
2013-07-28 15:12:00,72.0,50.0,30.10,North,0,0.0,-999.0,46,-99.99,,,-99.99,,2013-07-28 20:12:00,
2013-07-28 15:22:00,72.0,52.0,30.10,North,0,3.0,-999.0,49,-99.99,,,-99.99,,2013-07-28 20:22:00,
2013-07-28 15:33:00,72.0,50.0,30.10,North,0,3.0,-999.0,46,-99.99,,,-99.99,,2013-07-28 20:33:00,
2013-07-28 15:43:00,72.0,50.0,30.10,NNW,334,3.0,-999.0,46,-99.99,,,-99.99,,2013-07-28 20:43:00,
2013-07-28 15:52:00,73.0,52.0,30.10,WNW,295,3.0,-999.0,46,-99.99,,,-99.99,,2013-07-28 20:52:00,
2013-07-28 16:02:00,72.0,50.0,30.10,North,0,0.0,-999.0,46,-99.99,,,-99.99,,2013-07-28 21:02:00,
2013-07-28 16:12:00,72.0,52.0,30.09,North,0,0.0,-999.0,49,-99.99,,,-99.99,,2013-07-28 21:12:00,
2013-07-28 16:22:00,73.0,52.0,30.09,North,0,12.0,-999.0,46,-99.99,,,-99.99,,2013-07-28 21:22:00,
2013-07-28 16:33:00,72.0,50.0,30.10,NNW,334,7.0,-999.0,46,-99.99,,,-99.99,,2013-07-28 21:33:00,
2013-07-28 16:44:00,72.0,50.0,30.09,North,0,6.0,-999.0,46,-99.99,,,-99.99,,2013-07-28 21:44:00,
2013-07-28 16:52:00,72.0,52.0,30.09,ENE,69,10.0,-999.0,49,-99.99,,,-99.99,,2013-07-28 21:52:00,
2013-07-28 17:01:00,72.0,52.0,30.09,NW,315,5.0,-999.0,49,-99.99,,,-99.99,,2013-07-28 22:01:00,
2013-07-28 17:12:00,72.0,50.0,30.09,NNW,335,5.0,-999.0,46,-99.99,,,-99.99,,2013-07-28 22:12:00,
2013-07-28 17:22:00,73.0,52.0,30.09,North,0,0.0,-999.0,46,-99.99,,,-99.99,,2013-07-28 22:22:00,
2013-07-28 17:32:00,72.0,50.0,30.09,NW,315,9.0,-999.0,46,-99.99,,,-99.99,,2013-07-28 22:32:00,
2013-07-28 17:43:00,72.0,50.0,30.09,North,0,0.0,-999.0,46,-99.99,,,-99.99,,2013-07-28 22:43:00,
2013-07-28 17:52:00,73.0,52.0,30.09,NNE,25,3.0,-999.0,46,-99.99,,,-99.99,,2013-07-28 22:52:00,
2013-07-28 18:03:00,72.0,52.0,30.09,NNW,335,5.0,-999.0,49,-99.99,,,-99.99,,2013-07-28 23:03:00,
2013-07-28 18:12:00,72.0,50.0,30.08,NNW,335,5.0,-999.0,46,-99.99,,,-99.99,,2013-07-28 23:12:00,
2013-07-28 18:22:00,72.0,52.0,30.08,North,0,0.0,-999.0,49,-99.99,,,-99.99,,2013-07-28 23:22:00,
2013-07-28 18:32:00,72.0,52.0,30.09,North,0,0.0,-999.0,49,-99.99,,,-99.99,,2013-07-28 23:32:00,
2013-07-28 18:43:00,72.0,50.0,30.09,WNW,295,7.0,-999.0,46,-99.99,,,-99.99,,2013-07-28 23:43:00,
2013-07-28 18:53:00,72.0,52.0,30.09,North,0,0.0,-999.0,49,-99.99,,,-99.99,,2013-07-28 23:53:00,
2013-07-28 19:02:00,72.0,52.0,30.09,NNW,335,5.0,-999.0,49,-99.99,,,-99.99,,2013-07-29 00:02:00,
2013-07-28 19:12:00,72.0,52.0,30.09,North,0,0.0,-999.0,49,-99.99,,,-99.99,,2013-07-29 00:12:00,
2013-07-28 19:22:00,72.0,52.0,30.09,North,0,0.0,-999.0,49,-99.99,,,-99.99,,2013-07-29 00:22:00,
2013-07-28 19:32:00,72.0,52.0,30.09,North,0,0.0,-999.0,49,-99.99,,,-99.99,,2013-07-29 00:32:00,
2013-07-28 19:43:00,72.0,52.0,30.09,North,0,0.0,-999.0,49,-99.99,,,-99.99,,2013-07-29 00:43:00,
2013-07-28 19:52:00,72.0,52.0,30.09,North,0,0.0,-999.0,49,-99.99,,,-99.99,,2013-07-29 00:52:00,
2013-07-28 20:02:00,70.0,50.0,30.10,North,0,0.0,-999.0,49,-99.99,,,-99.99,,2013-07-29 01:02:00,
2013-07-28 20:12:00,70.0,52.0,30.10,North,0,0.0,-999.0,52,-99.99,,,-99.99,,2013-07-29 01:12:00,
2013-07-28 20:34:00,70.0,52.0,30.10,North,0,0.0,-999.0,52,-99.99,,,-99.99,,2013-07-29 01:34:00,
2013-07-28 20:55:00,70.0,54.0,30.10,North,0,0.0,-999.0,56,-99.99,,,-99.99,,2013-07-29 01:55:00,
2013-07-28 21:04:00,68.0,54.0,30.10,North,0,0.0,-999.0,59,-99.99,,,-99.99,,2013-07-29 02:04:00,
2013-07-28 21:24:00,66.0,55.0,30.10,North,0,0.0,-999.0,68,-99.99,,,-99.99,,2013-07-29 02:24:00,
2013-07-28 21:45:00,64.0,55.0,30.10,North,0,0.0,-999.0,72,-99.99,,,-99.99,,2013-07-29 02:45:00,
2013-07-28 22:03:00,63.0,55.0,30.12,North,0,0.0,-999.0,77,-99.99,,,-99.99,,2013-07-29 03:03:00,
2013-07-28 22:23:00,61.0,55.0,30.13,North,0,0.0,-999.0,82,-99.99,,,-99.99,,2013-07-29 03:23:00,
2013-07-28 22:46:00,61.0,55.0,30.13,North,0,0.0,-999.0,82,-99.99,,,-99.99,,2013-07-29 03:46:00,
2013-07-28 22:54:00,61.0,57.0,30.14,North,0,0.0,-999.0,87,-99.99,,,-99.99,,2013-07-29 03:54:00,
2013-07-28 23:02:00,61.0,57.0,30.14,North,0,0.0,-999.0,87,-99.99,,,-99.99,,2013-07-29 04:02:00,
2013-07-28 23:12:00,61.0,55.0,30.14,North,0,0.0,-999.0,82,-99.99,,,-99.99,,2013-07-29 04:12:00,
2013-07-28 23:22:00,61.0,55.0,30.14,North,0,0.0,-999.0,82,-99.99,,,-99.99,,2013-07-29 04:22:00,
2013-07-28 23:32:00,59.0,55.0,30.13,North,0,0.0,-999.0,87,-99.99,,,-99.99,,2013-07-29 04:32:00,
2013-07-28 23:43:00,59.0,55.0,30.13,North,0,0.0,-999.0,87,-99.99,,,-99.99,,2013-07-29 04:43:00,
2013-07-28 23:53:00,57.0,55.0,30.14,North,0,0.0,-999.0,93,-99.99,,,-99.99,,2013-07-29 04:53:00,